Location: Martinez
(33.5170°N, 82.0760°W)
Time: 05:45:33
(UTC-05:00)

Hubble Space Telescope - Visible Passes

Search period start: 16 January 2017 00:00
Search period end: 26 January 2017 00:00
Orbit: 538 x 542 km, 28.5° (Epoch: 15 January)

Date Brightness Start Highest point End Pass type
(mag) Time Alt. Az. Time Alt. Az. Time Alt. Az.
16 Jan 2.0 18:55:04 10° WSW 18:58:51 35° S 19:01:45 15° SE visible
16 Jan 4.0 20:36:55 10° WSW 20:37:08 11° WSW 20:37:08 11° WSW visible
17 Jan 2.3 18:45:10 10° WSW 18:48:52 31° SSW 18:52:34 10° SE visible
17 Jan 3.8 20:27:28 10° SW 20:28:06 12° SW 20:28:06 12° SW visible
18 Jan 2.5 18:35:19 10° WSW 18:38:52 28° SSW 18:42:26 10° SE visible
18 Jan 3.7 20:18:31 10° SW 20:19:11 11° SSW 20:19:11 11° SSW visible
19 Jan 2.8 18:25:29 10° WSW 18:28:51 24° SSW 18:32:14 10° SE visible
20 Jan 3.2 18:15:44 10° WSW 18:18:51 20° SSW 18:21:57 10° SSE visible
